Back to catalog

CZ-6A DEB

AliveSSO
NORAD 54501·DEBRIS·🇨🇳 China

Launched Nov 11, 2022 from Taiyuan Satellite Launch Center

Loading…

Next Passes (next 24 hours)

TLE

FreshSource: Space-Track

Epoch: Sep 14, 2026, 11:09 UTC

1 54501U 22151JD  26257.46462514  .00001991  00000-0  57996-3 0  9999
2 54501  98.6613 265.8972 0194338 219.0989 139.6017 14.34951212199575

Track CZ-6A DEB in real time with AllMySat

Download on the App Store